This demonstration page uses our WeatherBlox Daily Observations layout. Learn more.

Left ArrowRight Arrow

36.19886, -115.1175

Hourly Observations for October 4, 2020

Temp ( °F °C ) Dew Point ( °F °C ) Humidity (%) Winds ( mph kmh ) Pressure ( in mb ) Visibility ( mi km ) Precip ( " mm )
12:53 am 00:53 Clear 76 24.4 22 -5.6 13 13 W 3 6 29.91 1013 10 16 0.00 0.00
1:53 am 01:53 Clear 74 23.3 20 -6.7 13 13 NE 3 6 29.93 1014 10 16 0.00 0.00
2:53 am 02:53 Clear 70 21.1 19 -7.2 14 14 NW 3 6 29.93 1014 10 16 0.00 0.00
3:53 am 03:53 Clear 69 20.6 22 -5.6 17 17 WNW 9 15 29.94 1014 10 16 0.00 0.00
4:53 am 04:53 Clear 70 21.1 22 -5.6 16 16 WNW 5 7 29.95 1014 10 16 0.00 0.00
5:53 am 05:53 Clear 66 18.9 25 -3.9 21 21 WNW 8 13 29.97 1015 10 16 0.00 0.00
6:53 am 06:53 Sunny 65 18.3 23 -5 20 20 WNW 5 7 30.00 1016 10 16 0.00 0.00
7:53 am 07:53 Sunny 70 21.1 25 -3.9 18 18 NNW 5 7 30.02 1017 10 16 0.00 0.00
8:53 am 08:53 Sunny 78 25.6 21 -6.1 12 12 Calm 30.03 1017 10 16 0.00 0.00
9:53 am 09:53 Sunny 84 28.9 20 -6.7 9 9 Calm 30.03 1017 10 16 0.00 0.00
10:53 am 10:53 Sunny 86 30 20 -6.7 9 9 SE 3 6 30.03 1017 10 16 0.00 0.00
11:53 am 11:53 Sunny 90 32.2 18 -7.8 7 7 VRB 3 6 30.01 1016 10 16 0.00 0.00
12:53 pm 12:53 Sunny 92 33.3 14 -10 5 5 undefined N/A 29.99 1016 10 16 0.00 0.00
1:53 pm 13:53 Sunny 94 34.4 16 -8.9 6 6 SSE 5 7 29.96 1014 10 16 0.00 0.00
2:53 pm 14:53 Sunny 97 36.1 16 -8.9 5 5 undefined N/A 29.93 1014 10 16 0.00 0.00
3:53 pm 15:53 Sunny 97 36.1 15 -9.4 5 5 ESE 5 7 29.92 1013 10 16 0.00 0.00
4:53 pm 16:53 Sunny 99 37.2 15 -9.4 5 5 Calm 29.90 1013 10 16 0.00 0.00
5:53 pm 17:53 Sunny 97 36.1 15 -9.4 5 5 Calm 29.90 1013 10 16 0.00 0.00
6:53 pm 18:53 Clear 91 32.8 22 -5.6 8 8 NW 6 9 29.92 1013 10 16 0.00 0.00
7:53 pm 19:53 Clear 85 29.4 22 -5.6 10 10 WNW 7 11 29.93 1014 10 16 0.00 0.00
8:53 pm 20:53 Clear 81 27.2 22 -5.6 11 11 WNW 6 9 29.94 1014 10 16 0.00 0.00
9:53 pm 21:53 Clear 79 26.1 25 -3.9 14 14 NW 7 11 29.95 1014 10 16 0.00 0.00
10:53 pm 22:53 Clear 75 23.9 22 -5.6 14 14 NW 7 11 29.96 1015 10 16 0.00 0.00
11:53 pm 23:53 Clear 77 25 24 -4.4 14 14 Calm 29.96 1015 10 16 0.00 0.00

Powered by AerisWeather